TimeCDT,TemperatureF,Dew PointF,Humidity,Sea Level PressureIn,VisibilityMPH,Wind Direction,Wind SpeedMPH,Gust SpeedMPH,PrecipitationIn,Events,Conditions,WindDirDegrees,DateUTC
12:15 AM,81.5,66.2,60,29.99,10.0,SSE,10.4,-,N/A,,Clear,160,2013-07-20 05:15:00
12:35 AM,80.8,66.7,62,29.99,10.0,SSE,11.5,16.1,N/A,,Clear,160,2013-07-20 05:35:00
12:55 AM,80.2,67.1,64,30.00,10.0,SSE,12.7,-,N/A,,Clear,160,2013-07-20 05:55:00
1:15 AM,79.9,67.6,66,29.99,10.0,SSE,12.7,20.7,N/A,,Clear,160,2013-07-20 06:15:00
1:35 AM,79.3,68.2,69,29.99,10.0,SSE,10.4,-,N/A,,Clear,160,2013-07-20 06:35:00
1:55 AM,78.8,68.4,70,30.00,10.0,South,9.2,16.1,N/A,,Clear,170,2013-07-20 06:55:00
2:15 AM,78.1,68.9,73,30.00,10.0,South,8.1,-,N/A,,Clear,170,2013-07-20 07:15:00
2:35 AM,77.9,68.9,74,29.99,10.0,South,9.2,-,N/A,,Clear,170,2013-07-20 07:35:00
2:55 AM,77.5,68.9,75,29.98,10.0,South,10.4,-,N/A,,Clear,170,2013-07-20 07:55:00
3:15 AM,77.0,69.1,76,29.98,10.0,South,6.9,-,N/A,,Clear,190,2013-07-20 08:15:00
3:35 AM,76.1,68.9,78,29.98,10.0,SSW,6.9,-,N/A,,Clear,200,2013-07-20 08:35:00
3:55 AM,76.1,68.5,77,29.98,10.0,South,6.9,-,N/A,,Clear,170,2013-07-20 08:55:00
4:15 AM,75.6,68.2,78,29.98,10.0,South,6.9,-,N/A,,Clear,180,2013-07-20 09:15:00
4:35 AM,75.2,68.4,79,29.97,10.0,SSW,5.8,-,N/A,,Clear,200,2013-07-20 09:35:00
4:55 AM,75.4,68.0,78,29.97,10.0,South,5.8,-,N/A,,Clear,170,2013-07-20 09:55:00
5:15 AM,74.3,68.0,81,29.97,10.0,South,4.6,-,N/A,,Clear,190,2013-07-20 10:15:00
5:35 AM,73.9,68.0,82,29.97,10.0,South,5.8,-,N/A,,Clear,190,2013-07-20 10:35:00
5:55 AM,73.8,68.0,82,29.97,10.0,SSW,4.6,-,N/A,,Clear,200,2013-07-20 10:55:00
6:15 AM,74.1,68.0,81,29.98,10.0,South,6.9,-,N/A,,Clear,180,2013-07-20 11:15:00
6:35 AM,73.6,68.0,83,29.98,10.0,SSW,5.8,-,N/A,,Clear,200,2013-07-20 11:35:00
6:55 AM,73.6,68.2,83,29.98,10.0,South,6.9,-,N/A,,Clear,190,2013-07-20 11:55:00
7:15 AM,74.1,68.4,82,29.97,10.0,SSW,6.9,-,N/A,,Clear,200,2013-07-20 12:15:00
7:35 AM,75.2,68.4,79,29.98,10.0,SSW,5.8,-,N/A,,Clear,200,2013-07-20 12:35:00
7:55 AM,76.3,68.5,77,29.98,10.0,SSW,5.8,-,N/A,,Clear,210,2013-07-20 12:55:00
8:15 AM,77.4,68.4,74,29.98,10.0,SSW,8.1,-,N/A,,Clear,200,2013-07-20 13:15:00
8:35 AM,78.8,68.5,71,29.98,10.0,SSW,8.1,-,N/A,,Clear,210,2013-07-20 13:35:00
8:55 AM,80.6,68.5,67,29.98,10.0,SW,9.2,-,N/A,,Clear,220,2013-07-20 13:55:00
9:15 AM,81.9,68.4,63,29.98,10.0,SW,8.1,-,N/A,,Clear,230,2013-07-20 14:15:00
9:35 AM,83.5,68.0,59,29.99,10.0,SW,11.5,-,N/A,,Clear,230,2013-07-20 14:35:00
9:55 AM,84.6,68.2,58,29.99,10.0,WSW,10.4,-,N/A,,Clear,240,2013-07-20 14:55:00
10:15 AM,85.3,68.0,56,29.98,10.0,WSW,10.4,16.1,N/A,,Clear,250,2013-07-20 15:15:00
10:35 AM,86.9,67.8,53,29.98,10.0,WSW,9.2,-,N/A,,Clear,250,2013-07-20 15:35:00
10:55 AM,87.8,67.8,51,29.98,10.0,WSW,10.4,-,N/A,,Clear,250,2013-07-20 15:55:00
11:15 AM,88.2,67.1,50,29.98,10.0,SSW,8.1,-,N/A,,Clear,210,2013-07-20 16:15:00
11:35 AM,89.6,66.9,47,29.98,10.0,WSW,5.8,-,N/A,,Clear,240,2013-07-20 16:35:00
11:55 AM,90.5,66.4,45,29.98,10.0,West,8.1,-,N/A,,Clear,260,2013-07-20 16:55:00
12:15 PM,90.5,64.2,42,29.97,10.0,SSW,8.1,-,N/A,,Clear,210,2013-07-20 17:15:00
12:35 PM,91.2,63.5,40,29.96,10.0,SSW,3.5,-,N/A,,Clear,210,2013-07-20 17:35:00
12:55 PM,91.9,63.0,38,29.96,10.0,SSW,6.9,-,N/A,,Scattered Clouds,200,2013-07-20 17:55:00
1:15 PM,92.3,62.1,36,29.95,10.0,SSE,3.5,-,N/A,,Scattered Clouds,160,2013-07-20 18:15:00
1:35 PM,92.1,62.6,37,29.94,10.0,West,5.8,-,N/A,,Mostly Cloudy,260,2013-07-20 18:35:00
1:55 PM,92.3,61.7,36,29.94,10.0,West,4.6,-,N/A,,Mostly Cloudy,270,2013-07-20 18:55:00
2:15 PM,92.8,60.4,34,29.93,10.0,SSW,4.6,-,N/A,,Scattered Clouds,200,2013-07-20 19:15:00
2:35 PM,92.1,60.6,35,29.93,10.0,South,3.5,-,N/A,,Mostly Cloudy,170,2013-07-20 19:35:00
2:55 PM,93.6,61.9,35,29.93,10.0,SSW,9.2,-,N/A,,Mostly Cloudy,200,2013-07-20 19:55:00
3:15 PM,94.6,59.7,31,29.92,10.0,SSW,6.9,-,N/A,,Scattered Clouds,210,2013-07-20 20:15:00
3:35 PM,94.6,60.6,32,29.91,10.0,SSE,5.8,-,N/A,,Scattered Clouds,160,2013-07-20 20:35:00
3:55 PM,94.8,59.9,31,29.90,10.0,SW,4.6,-,N/A,,Clear,220,2013-07-20 20:55:00
4:15 PM,95.0,59.0,30,29.89,10.0,SSE,5.8,10.4,N/A,,Clear,160,2013-07-20 21:15:00
4:35 PM,95.9,60.3,30,29.88,10.0,SW,3.5,-,N/A,,Clear,220,2013-07-20 21:35:00
4:55 PM,95.9,59.5,30,29.88,10.0,SSE,5.8,-,N/A,,Clear,150,2013-07-20 21:55:00
5:15 PM,94.5,59.5,31,29.88,10.0,South,10.4,-,N/A,,Mostly Cloudy,180,2013-07-20 22:15:00
5:35 PM,93.6,64.6,38,29.88,10.0,ESE,13.8,21.9,N/A,,Mostly Cloudy,110,2013-07-20 22:35:00
5:55 PM,92.3,63.9,39,29.86,10.0,ESE,12.7,17.3,N/A,,Clear,110,2013-07-20 22:55:00
6:15 PM,93.0,63.0,37,29.85,10.0,ESE,9.2,-,N/A,,Clear,120,2013-07-20 23:15:00
6:35 PM,93.2,63.1,37,29.85,10.0,SE,8.1,-,N/A,,Scattered Clouds,130,2013-07-20 23:35:00
6:55 PM,93.2,63.1,37,29.85,10.0,ESE,11.5,-,N/A,,Mostly Cloudy,120,2013-07-20 23:55:00
7:15 PM,92.8,62.4,36,29.85,10.0,SE,11.5,-,N/A,,Mostly Cloudy,130,2013-07-21 00:15:00
7:35 PM,90.5,64.0,41,29.85,10.0,SE,9.2,-,N/A,,Scattered Clouds,130,2013-07-21 00:35:00
7:55 PM,89.6,64.6,43,29.87,10.0,SE,11.5,-,N/A,,Scattered Clouds,130,2013-07-21 00:55:00
8:15 PM,88.2,64.9,46,29.87,10.0,SE,6.9,-,N/A,,Scattered Clouds,130,2013-07-21 01:15:00
8:35 PM,87.1,65.7,49,29.87,10.0,SE,5.8,-,N/A,,Overcast,130,2013-07-21 01:35:00
8:55 PM,86.4,66.2,51,29.88,10.0,SE,9.2,-,N/A,,Overcast,140,2013-07-21 01:55:00
9:15 PM,85.6,65.3,50,29.88,10.0,SE,10.4,-,N/A,,Mostly Cloudy,130,2013-07-21 02:15:00
9:35 PM,84.7,65.5,52,29.89,10.0,SE,10.4,-,N/A,,Scattered Clouds,140,2013-07-21 02:35:00
9:55 PM,84.0,66.4,55,29.89,10.0,SE,10.4,16.1,N/A,,Scattered Clouds,130,2013-07-21 02:55:00
10:15 PM,83.3,67.1,58,29.90,10.0,SE,11.5,-,N/A,,Scattered Clouds,140,2013-07-21 03:15:00
10:35 PM,82.8,67.3,59,29.90,10.0,SE,9.2,-,N/A,,Clear,140,2013-07-21 03:35:00
10:55 PM,82.4,67.5,60,29.91,10.0,SE,9.2,-,N/A,,Clear,140,2013-07-21 03:55:00
11:15 PM,82.0,67.6,62,29.91,10.0,SE,8.1,-,N/A,,Clear,140,2013-07-21 04:15:00
11:35 PM,81.7,68.0,63,29.92,10.0,SE,9.2,-,N/A,,Clear,140,2013-07-21 04:35:00
11:55 PM,81.1,68.0,64,29.92,10.0,SE,10.4,-,N/A,,Clear,140,2013-07-21 04:55:00